Regional Weather Roundup
Issued by NWS

Home | Current Version | Previous Version | Text Only | Print | Product List | Glossary Off
Versions: 1 2 3 4 5 6 7 8 9 10 11 12 13 14 15 16 17 18 19 20 21 22 23 24 25 26 27 28 29 30 31 32 33 34 35 36 37 38 39 40 41 42 43 44 45 46 47 48 49 50

000
ASUS45 KCYS 200010
RWRWY

WYOMING REGIONAL WEATHER ROUNDUP
NATIONAL WEATHER SERVICE CHEYENNE WY
600 PM MDT THU OCT 19 2017

NOTE:  "FAIR" INDICATES FEW OR NO CLOUDS BELOW 12,000 FEET
WITH NO SIGNIFICANT WEATHER AND/OR OBSTRUCTIONS TO VISIBILITY.

WYZ001-200100-
YELLOWSTONE NATIONAL PARK

CITY           SKY/WX    TMP DP  RH WIND       PRES   REMARKS
LK YELLOWSTONE   N/A     52  15  23 CALM      29.97F
6HR MIN TEMP:  50; 6HR MAX TEMP:  58;

W YELLOWSTONE  NOT AVBL

$$
WYZ002>013-054>058-071-098>099-200100-
NORTHERN WYOMING

CITY           SKY/WX    TMP DP  RH WIND       PRES   REMARKS
JACKSON        FAIR      62  10  13 SW9       29.90F
CODY           FAIR      69  17  13 W6        29.78F
GREYBULL       FAIR      73  22  14 CALM      29.71F
6HR MIN TEMP:  60; 6HR MAX TEMP:  76;

WORLAND        FAIR      67  19  16 S10       29.73F
6HR MIN TEMP:  65; 6HR MAX TEMP:  77;

SHERIDAN       FAIR      70  37  29 CALM      29.68F
6HR MIN TEMP:  70; 6HR MAX TEMP:  82;

BUFFALO        FAIR      70  23  17 N5        29.75F
6HR MIN TEMP:  70; 6HR MAX TEMP:  82;

GILLETTE         N/A     71  13  10 MISG      29.74F
6HR MIN TEMP:  71; 6HR MAX TEMP:  77;

HULETT         FAIR      66  19  16 S7        29.77F
NEWCASTLE      FAIR      64  19  17 SE7       29.81S

$$
WYZ014>020-022>026-101>103-200100-
CENTRAL WYOMING

CITY           SKY/WX    TMP DP  RH WIND       PRES   REMARKS
BIG PINEY      FAIR      60  15  17 W7        29.96F
6HR MIN TEMP:  46; 6HR MAX TEMP:  66;

PINEDALE       FAIR      59  12  15 S6        29.97F
DUBOIS         FAIR      54  10  17 W9        29.93F
LANDER         FAIR      64  27  24 W6        29.83F
6HR MIN TEMP:  61; 6HR MAX TEMP:  70;

RIVERTON       FAIR      65  21  18 NE3       29.84F
6HR MIN TEMP:  58; 6HR MAX TEMP:  68;

CASPER         FAIR      65  14  14 SW14      29.86S
6HR MIN TEMP:  65; 6HR MAX TEMP:  74;

DOUGLAS        FAIR      65  24  21 S6        29.86F
6HR MIN TEMP:  65; 6HR MAX TEMP:  80;


$$
WYZ021-027>030-104>119-200100-
SOUTHERN WYOMING

CITY           SKY/WX    TMP DP  RH WIND       PRES   REMARKS
EVANSTON       CLOUDY    63  22  20 SW10      29.97F
6HR MIN TEMP:  61; 6HR MAX TEMP:  69;

KEMMERER       FAIR      63   7  11 SW15      29.98F
FORT BRIDGER   CLOUDY    62  18  17 SE5       30.00F
ROCK SPRINGS   FAIR      63   9  12 CALM      29.96F
6HR MIN TEMP:  56; 6HR MAX TEMP:  67;

DIXON          FAIR      66  24  20 W8        30.01F
RAWLINS        FAIR      62  25  24 SW15      29.99S
6HR MIN TEMP:  58; 6HR MAX TEMP:  69;

SARATOGA       FAIR      63  25  23 SW12      30.02S
LARAMIE        FAIR      61  23  23 SW7       30.01F
6HR MIN TEMP:  61; 6HR MAX TEMP:  70;

CHEYENNE       FAIR      61  31  32 SW3       29.96F
6HR MIN TEMP:  61; 6HR MAX TEMP:  75;

TORRINGTON     FAIR      70  22  16 S7        29.82F
6HR MIN TEMP:  66; 6HR MAX TEMP:  83;

PINE BLUFFS    FAIR      63  27  25 SW6       29.91F

$$



USA.gov is the U.S. government's official web portal to all federal, state and local government web resources and services.